Home > Weather > Tilburg > Past weeks

Flag for Netherlands Past Weather in Tilburg, Netherlands — Yesterday and Last 2 Weeks

Now
64 °F

High level clouds.


Feels Like: 64 °F
Forecast: 55 / 71 °F
Wind: 5 mph from Northwest

Location: Gilze-Rijen

Current Time: Jul 25, 2016 at 10:09:54 PM

Latest Report: Jul 25, 2016 at 9:25 PM


Visibility: N/A

Pressure: 30.12 "Hg

Humidity: 78%

Dew Point: 57 °F

Location of TilburgLocation

Past Weather in Tilburg — Graph

°F

Tilburg Temperature Yesterday

Maximum temperature yesterday: 79 °F (at 3:25 PM)
Minimum temperature yesterday: 63 °F (at 1:55 AM)
Average temperature yesterday: 69 °F

High & Low Weather Summary for the Past Weeks

 TemperatureHumidityPressure
High95 °F (Jul 20, 3:04 PM)100% (Jul 13, 1:55 AM)30.30 "Hg (Jul 13, 1:55 AM)
Low48 °F (Jul 14, 4:55 AM)32% (Jul 20, 2:25 PM)29.77 "Hg (Jul 10, 8:25 PM)
Average68 °F75%30.05 "Hg
* Reported Jul 10 8:25 PM — Jul 25 8:55 PM, Tilburg, Weather by CustomWeather, © 2016

Note: Actual official high and low records may vary slightly from our data, if they occured in-between our weather recording intervals... More about our weather records

Advertising

Tilburg Weather History for the Previous 24 Hours

Scroll right to see more
 ConditionsComfort  
Time TempWeatherWind HumidityBarometerVisibility
8:55 PM
Mon, Jul 25
66 °FHigh level clouds.6 mph73%30.09 "HgN/A
8:25 PM68 °FHigh level clouds.7 mph69%30.09 "HgN/A
7:55 PM70 °FPartly sunny.8 mph64%30.09 "HgN/A
7:25 PM70 °FMostly cloudy.8 mph64%30.09 "HgN/A
6:55 PM72 °FHigh level clouds.8 mph61%30.09 "HgN/A
6:25 PM70 °FMostly cloudy.9 mph69%30.09 "HgN/A
5:55 PM72 °FMostly cloudy.10 mph69%30.09 "HgN/A
5:25 PM73 °FMostly cloudy.8 mph69%30.09 "HgN/A
4:55 PM72 °FMostly cloudy.7 mph73%30.09 "HgN/A
4:25 PM73 °FBroken clouds.5 mph69%30.09 "HgN/A
4:00 PM72 °FBroken clouds.7 mph78%30.09 "HgN/A
3:55 PM72 °FMostly cloudy.6 mph83%30.09 "HgN/A
3:25 PM70 °FBroken clouds.8 mph83%30.09 "HgN/A
2:55 PM70 °FOvercast.7 mph88%30.09 "HgN/A
2:25 PM72 °FDrizzle. Cloudy.6 mph78%30.09 "HgN/A
2:04 PM73 °FLight rain. Mostly cloudy.9 mph74%30.09 "HgN/A
1:55 PM73 °FMostly cloudy.8 mph74%30.09 "HgN/A
1:25 PM72 °FPartly sunny.9 mph78%30.09 "HgN/A
1:03 PM72 °FBroken clouds.6 mph78%30.09 "HgN/A
12:55 PM70 °FBroken clouds.6 mph78%30.09 "HgN/A
12:25 PM68 °FOvercast.7 mph83%30.09 "HgN/A
11:55 AM68 °FMostly cloudy.7 mph83%30.09 "HgN/A
11:25 AM68 °FOvercast.8 mph83%30.09 "HgN/A
10:55 AM68 °FOvercast.8 mph83%30.09 "HgN/A
10:25 AM66 °FFog.7 mph88%30.07 "Hg5 mi
9:55 AM66 °FMostly cloudy.7 mph88%30.09 "HgN/A
9:25 AM66 °FMostly cloudy.7 mph88%30.09 "HgN/A
8:55 AM66 °FOvercast.6 mph88%30.09 "HgN/A
8:25 AM64 °FLow clouds.6 mph88%30.07 "HgN/A
7:55 AM64 °FLow clouds.6 mph88%30.07 "HgN/A
7:25 AM64 °FMostly cloudy.6 mph88%30.07 "HgN/A
6:55 AM64 °FMostly cloudy.5 mph88%30.07 "HgN/A
6:25 AM64 °FOvercast.6 mph88%30.07 "HgN/A
5:55 AM64 °FOvercast.5 mph88%30.07 "HgN/A
5:25 AM64 °FOvercast.5 mph88%30.07 "HgN/A
4:55 AM63 °FOvercast.3 mph94%30.07 "HgN/A
4:25 AM63 °FMostly cloudy.5 mph94%30.07 "HgN/A
3:55 AM63 °FOvercast.5 mph88%30.07 "HgN/A
3:25 AM61 °FOvercast.5 mph94%30.07 "HgN/A
2:55 AM59 °FOvercast.3 mph94%30.09 "HgN/A
2:25 AM59 °FOvercast.2 mph100%30.09 "HgN/A
1:55 AM59 °FHigh level clouds.2 mph94%30.09 "HgN/A
1:25 AM59 °FMostly cloudy.1 mph94%30.09 "HgN/A
12:55 AM61 °FOvercast.1 mph94%30.09 "HgN/A
12:25 AM63 °FHigh level clouds.2 mph88%30.09 "HgN/A
11:55 PM
Sun, Jul 24
63 °FOvercast.No wind88%30.09 "HgN/A
11:25 PM63 °FPassing clouds.1 mph88%30.09 "HgN/A
10:55 PM66 °FPassing clouds.2 mph78%30.09 "HgN/A
10:25 PM66 °FOvercast.2 mph83%30.09 "Hg6 mi
Weather by CustomWeather, © 2016

See weather overviewHow to use our weather pages